Weather History for Kivalina, AK

Change the Weather History Date:

Wednesday, February 12, 2014

  Actual Average Record
Temperature  
Mean Temperature -18 °F -  
Max Temperature -14 °F - - ()
Min Temperature -23 °F - - ()
Degree Days  
Heating Degree Days 84    
Moisture  
Dew Point -28 °F    
Average Humidity 64    
Maximum Humidity 71    
Minimum Humidity 58    
Precipitation  
Precipitation 0.00 in - - ()
Sea Level Pressure  
Sea Level Pressure 29.94 in    
Wind  
Wind Speed 19 mph (North)    
Max Wind Speed 34 mph    
Max Gust Speed 39 mph    
Visibility 7 miles    
Events      
T = Trace of Precipitation, MM = Missing Value Source: NWS Daily Summary

Daily Weather History Graph

Daily Weather History Graph

Search for Another Location

Airport:

Trip Planner

Search our weather history database for the weather conditions in past years. The results will help you decide how hot, cold, wet, or windy it might be!

Date:

Astronomy

Feb. 12, 2014 Rise Set
Actual Time 10:25 AM AKST 6:00 PM AKST
Civil Twilight 9:23 AM AKST 7:03 PM AKST
Nautical Twilight 8:17 AM AKST 8:08 PM AKST
Astronomical Twilight 7:14 AM AKST 9:12 PM AKST
Moon 4:05 PM AKST (2/12) 9:15 AM AKST (2/12)
Length of Visible Light 9h 39m
Length of Day
7h 35m
Waxing Gibbous, 96% of the Moon is Illuminated
Feb 12
Waxing Gibbous
Feb 14
Full
Feb 22
Last Quarter
Feb 28
New
Mar 8
First Quarter

Hourly Weather History & Observations

Time (AKST) Temp. Windchill Dew Point Humidity Pressure Visibility Wind Dir Wind Speed Gust Speed Precip Events Conditions
12:53 AM -14.1 °F -35.7 °F -20.9 °F 71% 30.13 in 10.0 mi North 12.7 mph - N/A   Overcast
1:53 AM -15.0 °F -36.8 °F -22.0 °F 71% 30.12 in 10.0 mi NNW 12.7 mph - N/A   Scattered Clouds
2:53 AM -15.0 °F -40.7 °F -23.1 °F 67% 30.10 in 10.0 mi North 18.4 mph - N/A   Overcast
3:53 AM -17.0 °F -45.2 °F -24.0 °F 70% 30.08 in 8.0 mi North 21.9 mph - N/A   Partly Cloudy
4:53 AM -18.0 °F -43.3 °F -26.0 °F 67% 30.06 in 9.0 mi NNW 16.1 mph - N/A   Clear
5:53 AM -18.0 °F -37.5 °F -27.0 °F 64% 30.06 in 10.0 mi NNW 9.2 mph 17.3 mph N/A   Clear
7:53 AM -18.9 °F -43.6 °F -27.0 °F 66% 30.02 in 10.0 mi NNW 15.0 mph - N/A   Clear
8:53 AM -18.0 °F -33.0 °F -27.0 °F 64% 30.02 in 10.0 mi North 5.8 mph - N/A   Overcast
9:53 AM -18.9 °F -40.8 °F -27.0 °F 66% 30.00 in 10.0 mi NNW 11.5 mph - N/A   Partly Cloudy
10:53 AM -18.9 °F -46.6 °F -27.9 °F 63% 30.00 in 9.0 mi North 19.6 mph - N/A   Partly Cloudy
11:53 AM -18.9 °F -51.5 °F -27.9 °F 63% 29.96 in 10.0 mi NNW 29.9 mph 36.8 mph N/A   Clear
12:53 PM -18.9 °F -35.8 °F -27.9 °F 63% 29.99 in 10.0 mi North 6.9 mph - N/A   Clear
1:53 PM -18.0 °F -44.0 °F -27.9 °F 61% 29.95 in 8.0 mi North 17.3 mph - N/A   Clear
2:53 PM -18.9 °F -51.5 °F -27.9 °F 63% 29.91 in 5.0 mi North 29.9 mph 33.4 mph N/A   Haze
3:21 PM -18.4 °F -51.3 °F -29.2 °F 58% 29.89 in 1.8 mi North 31.1 mph - N/A   Haze
3:39 PM -20.2 °F -55.0 °F -29.2 °F 63% 29.88 in 2.0 mi North 34.5 mph 39.1 mph N/A   Haze
3:53 PM -20.0 °F -54.8 °F -29.9 °F 60% 29.87 in 5.0 mi North 34.5 mph - N/A   Haze
4:45 PM -20.2 °F -52.8 °F -29.2 °F 63% 29.88 in 1.8 mi North 28.8 mph - N/A   Haze
4:53 PM -20.9 °F -54.2 °F -29.0 °F 66% 29.87 in 0.8 mi North 29.9 mph - N/A   Haze
5:18 PM -20.2 °F -54.6 °F -29.2 °F 63% 29.85 in 1.0 mi North 33.4 mph - 0.00 in   Haze
5:53 PM -22.0 °F -56.6 °F -29.9 °F 67% 29.85 in 1.0 mi North 32.2 mph - 0.00 in   Haze
6:02 PM -22.0 °F -54.7 °F -31.0 °F 63% 29.85 in 3.0 mi North 27.6 mph - N/A   Haze
6:32 PM -23.8 °F -58.1 °F -31.0 °F 69% 29.85 in 1.8 mi North 29.9 mph - N/A   Haze
6:53 PM -23.1 °F -56.7 °F -31.0 °F 67% 29.84 in 5.0 mi North 28.8 mph - N/A   Haze
7:53 PM -22.0 °F -53.6 °F -32.1 °F 60% 29.84 in 10.0 mi NNE 25.3 mph - N/A   Clear
8:53 PM -22.0 °F -53.6 °F -31.0 °F 63% 29.83 in 9.0 mi NNE 25.3 mph - N/A   Clear
9:53 PM -22.0 °F -54.7 °F -31.0 °F 63% 29.82 in 10.0 mi NNE 27.6 mph - N/A   Clear
10:53 PM -22.0 °F -50.6 °F -31.0 °F 63% 29.83 in 10.0 mi NNE 19.6 mph - N/A   Clear
11:53 PM -22.0 °F -51.3 °F -31.0 °F 63% 29.83 in 10.0 mi NNE 20.7 mph - N/A   Clear